Regional Weather Roundup
Issued by NWS State College, PA

Home | Current Version | Previous Version | Graphics & Text | Print | Product List | Glossary Off
Versions: 1 2 3 4 5 6 7 8 9 10 11 12 13 14 15 16 17 18 19 20 21 22 23 24 25 26 27 28 29 30 31 32 33 34 35 36 37 38 39 40 41 42 43 44 45 46 47 48 49 50

000
ASUS41 KCTP 261403
RWRCTP

REGIONAL WEATHER ROUNDUP
NATIONAL WEATHER SERVICE STATE COLLEGE PA
1000 AM EDT FRI MAY 26 2017

Note: "fair" indicates few or no clouds below 12,000 feet with no
significant weather and/or obstructions to visibility.

* = STATION THAT DOES NOT REPORT PRECIPITATION /E.G. RAIN...SNOW...ETC/
    THUNDER OR FOG.

PAZ002>004-007>009-013>016-020>023-029>032-261500-
WESTERN PENNSYLVANIA

CITY           SKY/WX    TMP DP  RH WIND       PRES   REMARKS
ERIE           CLOUDY    54  52  93 W8        29.77R
MEADVILLE      LGT RAIN  54  53  97 NW6       29.78R FOG
FRANKLIN*      CLOUDY    54  50  87 W6        29.78R
NEW CASTLE     CLOUDY    56  55  97 W5        29.81R
BEAVER COUNTY  CLOUDY    57  54  88 NW9       29.79
BUTLER*        CLOUDY    57  54  88 NW5       29.79R
PITTSBURGH INT LGT RAIN  57  56  96 NW15      29.79R FOG
PITTSBURGH     LGT RAIN  58  54  86 NW8       29.79R FOG
INDIANA*       CLOUDY    57  57 100 NW8G14    29.80R
LATROBE        LGT RAIN  57  57 100 W12       29.80R
WASHINGTON CO* CLOUDY    59  54  82 W10G17    29.84R
$$

PAZ004>006-010>012-017>019-024>028-033>037-041-042-045-046-049>053-261500-
CENTRAL PENNSYLVANIA

CITY           SKY/WX    TMP DP  RH WIND       PRES   REMARKS
BRADFORD       CLOUDY    53  52  96 W12       29.72R
DUBOIS         CLOUDY    55  51  86 W17       29.74R
CLEARFIELD     CLOUDY    58  55  90 W13G20    29.73R
JOHNSTOWN      CLOUDY    57  55  93 W21       29.76R
ALTOONA        CLOUDY    62  54  74 W13G20    29.75R
STATE COLLEGE  CLOUDY    59  54  82 SW8       29.71R
WILLIAMSPORT   CLOUDY    65  57  75 W9        29.65R
SELINSGROVE    CLOUDY    64  57  78 VRB3      29.68R
FT INDIANTOWN  PTSUNNY   65  57  76 W10G20    29.67S
CAPITAL CITY   CLOUDY    66  56  70 W8        29.69R
HARRISBURG     CLOUDY    65  58  78 W14       29.68R
YORK           CLOUDY    64  58  80 W7        29.70R
$$

PAZ038>040-043-044-047-048-054-055-060>062-067>071-261500-
EASTERN PENNSYLVANIA

CITY           SKY/WX    TMP DP  RH WIND       PRES   REMARKS
SCRANTON       CLOUDY    62  57  83 W6        29.64S
MOUNT POCONO   CLOUDY    58  55  90 NW13G21   29.64R
ALLENTOWN      CLOUDY    66  57  72 W13       29.63S
QUAKERTOWN*    PTSUNNY   64  57  77 NW8       29.66R
READING        CLOUDY    67  58  72 W12       29.66R
LANCASTER      CLOUDY    66  58  75 W15G22    29.68R
COATESVILLE    MOSUNNY   66  57  72 NW16      29.69S
POTTSTOWN      MOSUNNY   66  57  72 VRB6G17   29.67R
BLUE BELL      CLOUDY    64  59  82 W6        29.67S
DOYLESTOWN     PTSUNNY   65  32  29 VRB6      29.64R
WILLOW GROVE   NOT AVBL
NORTH PHILA    CLOUDY    67  58  72 W8        29.66S
PHILADELPHIA   PTSUNNY   67  56  67 W13       29.66S
$$




USA.gov is the U.S. government's official web portal to all federal, state and local government web resources and services.